Hourly Data Report for December 08, 2016

TORONTO CITY
ONTARIO

43°40'00.000" N
79°24'00.000" W
112.50 m
6158355
71508
XTO

Download Data

Hourly Data (December 2016)
Hourly Data Report for December 8, 2016
TIME
LST
Temp Definition
°C
Dew Point Definition
°C
Rel Hum Definition
%
Precip. Amount Definition
mm

Wind Dir Definition
10's deg

Wind Spd Definition
km/h
Visibility Definition
km
Stn Press Definition
kPa
Hmdx Definition


Wind Chill Definition


Weather Definition


00:00 0.8 -3.4 74 0.0 LegendMM LegendMM   99.92     LegendNANA
01:00 0.5 -3.5 75 0.0 LegendMM LegendMM   99.94     LegendNANA
02:00 0.2 -3.5 76 0.0 LegendMM LegendMM   99.91     LegendNANA
03:00 0.1 -3.2 79 0.0 LegendMM LegendMM   99.91     LegendNANA
04:00 -0.1 -3.5 78 0.0 LegendMM LegendMM   99.86     LegendNANA
05:00 0.0 -4.1 74 0.0 LegendMM LegendMM   99.84     LegendNANA
06:00 0.1 -4.4 72 0.0 LegendMM LegendMM   99.84     LegendNANA
07:00 0.5 -4.6 69 0.0 LegendMM LegendMM   99.83     LegendNANA
08:00 0.9 -4.8 65 0.0 LegendMM LegendMM   99.85     LegendNANA
09:00 0.9 -5.7 61 0.0 LegendMM LegendMM   99.91     LegendNANA
10:00 0.4 -6.6 60 0.0 LegendMM LegendMM   99.96     LegendNANA
11:00 0.2 -6.9 59 0.0 LegendMM LegendMM   99.98     LegendNANA
12:00 0.0 -6.9 60 0.0 LegendMM LegendMM   99.97     LegendNANA
13:00 0.2 -8.2 53 0.0 LegendMM LegendMM   99.93     LegendNANA
14:00 0.5 -8.6 51 0.0 LegendMM LegendMM   99.93     LegendNANA
15:00 0.0 -8.2 54 0.0 LegendMM LegendMM   99.96     LegendNANA
16:00 -0.2 -7.7 57 0.0 LegendMM LegendMM   100.01     LegendNANA
17:00 -0.5 -6.6 64 0.0 LegendMM LegendMM   100.04     LegendNANA
18:00 -0.9 -6.1 68 0.0 LegendMM LegendMM   100.06     LegendNANA
19:00 -0.9 -6.0 68 0.0 LegendMM LegendMM   100.10     LegendNANA
20:00 -0.7 -5.4 71 0.0 LegendMM LegendMM   100.13     LegendNANA
21:00 -1.1 -3.4 84 0.0 LegendMM LegendMM   100.20     LegendNANA
22:00 -1.4 -3.1 88 0.6 LegendMM LegendMM   100.22     LegendNANA
23:00 -1.0 -5.5 71 0.0 LegendMM LegendMM   100.31     LegendNANA

Notes on Data Quality.

Legend

  • E = Estimated
  • M = Missing
  • NA = Not Available*
  • [empty] = Indicates an unobserved value
Date modified: